Helicity
76 77 95 87 62 86 101 140 139 94 84 72 52 49 14 -2 7 45 75 102 70 68 82 102 107 104 107 105 108 98 91 83 76 74 77 93 108 117 111 113 120 121 113 112
78 76 58 70 53 64 71 48 55 36 48 85 113 101 61 97 83 60 76 89 65 78 103 106 117 127 128 116 111 103 95 86 77 75 78 96 111 113 106 117 119 117 116 104
62 62 38 25 48 123 151 138 97 81 124 64 20 34 60 83 64 24 61 66 54 82 105 116 124 138 132 134 136 110 93 82 77 78 93 107 104 97 102 113 109 110 104 102
32 43 26 24 52 48 46 58 105 71 69 74 66 67 24 42 58 46 76 59 52 90 118 121 143 147 165 159 135 126 109 98 89 96 103 109 100 98 105 106 105 107 97 73
50 48 40 25 32 25 28 40 30 24 26 34 40 23 18 62 72 62 78 70 100 114 147 167 164 170 190 164 145 128 101 90 94 111 116 109 102 98 101 103 95 71 42 35
93 66 41 27 25 21 39 74 59 52 40 41 25 53 54 83 88 99 59 76 114 142 155 168 158 188 183 142 133 109 95 92 109 114 112 98 92 85 67 59 48 31 34 27
99 69 39 21 24 30 70 52 45 43 33 23 13 21 46 78 97 104 113 122 141 146 136 133 165 170 137 127 100 90 101 108 104 97 87 71 62 31 30 45 39 29 34 23
68 63 44 28 53 46 32 42 28 33 17 25 18 18 53 77 93 104 97 102 97 112 116 123 130 121 111 93 85 101 105 97 90 75 61 60 44 23 34 38 36 34 34 36
28 13 9 14 14 5 35 29 31 21 17 9 20 29 28 32 47 63 58 70 79 84 90 86 85 88 87 66 90 95 92 83 76 74 65 62 47 34 36 36 43 45 54 54
57 27 21 15 24 35 54 39 33 29 21 16 7 11 17 24 35 33 30 41 57 70 68 61 62 67 68 74 75 85 82 88 78 79 74 66 53 55 53 53 49 60 62 57
58 34 30 36 43 50 66 44 37 40 39 26 32 21 23 0 29 22 9 32 46 51 45 48 61 63 86 79 87 104 91 97 91 83 78 70 63 57 57 54 59 72 70 73
13 76 58 16 39 49 36 60 55 38 63 62 56 52 49 35 33 30 31 50 50 39 44 54 69 78 107 84 112 133 95 94 91 88 100 82 64 56 37 40 36 32 49 69
64 68 57 37 31 56 66 64 69 51 59 83 106 92 81 67 66 56 44 34 39 41 49 64 74 84 107 114 114 118 109 131 108 94 95 84 82 82 80 79 49 49 48 46
14 18 27 92 100 134 124 125 97 114 129 137 126 126 108 80 77 68 51 40 39 40 49 66 85 85 110 134 136 112 117 111 173 112 89 94 100 99 110 111 107 104 74 69
45 22 36 17 95 31 86 110 99 122 123 123 131 117 111 90 74 59 53 51 50 44 45 59 74 75 121 143 146 141 141 136 150 164 145 119 114 122 123 122 115 113 122 103
22 48 31 10 -19 -14 -25 -3 52 75 95 133 130 110 93 63 49 52 51 50 42 41 46 42 54 77 118 141 135 131 131 112 132 150 165 175 170 160 143 134 129 127 129 111
3 37 55 43 30 16 22 43 50 68 86 85 89 82 65 47 42 60 65 55 46 51 62 62 71 88 98 121 131 125 137 142 108 151 170 178 194 192 198 192 175 159 141 151
8 28 48 35 25 33 60 76 90 113 113 87 84 82 55 36 44 61 57 55 63 72 110 118 108 104 94 97 110 116 114 120 130 152 164 174 187 210 224 203 184 200 194 204
33 39 36 57 74 84 96 85 108 135 162 119 100 100 98 75 63 57 50 50 60 69 93 80 101 104 97 77 83 100 127 121 127 137 158 130 146 181 212 220 219 211 201 205
19 26 37 50 56 60 79 78 89 122 142 122 137 144 126 94 40 21 16 16 15 11 21 26 42 53 66 76 64 66 94 104 110 130 164 164 159 161 189 173 189 206 230 223
17 28 38 41 51 45 44 24 32 32 50 93 83 81 73 33 -14 -1 15 18 34 42 38 35 21 18 26 36 41 45 68 78 92 94 103 112 127 129 143 152 161 173 183 181
14 13 22 24 24 28 37 29 20 40 42 40 27 19 -2 -14 -5 8 11 4 7 23 14 13 24 34 48 56 61 55 53 68 75 79 80 89 109 115 126 139 146 151 158 165
20 9 -1 6 11 16 22 21 25 30 56 22 3 -3 -4 1 3 9 9 -6 -9 1 2 12 34 47 41 58 64 69 77 68 15 48 89 75 63 82 94 107 116 129 137 134
62 48 31 27 19 21 27 18 6 17 22 44 24 18 25 27 20 5 -2 -3 7 19 16 14 20 34 50 42 49 54 65 76 87 92 88 47 65 68 69 70 71 80 76 62
83 79 70 55 41 35 20 14 6 1 11 15 20 38 41 31 23 17 17 17 25 28 23 34 49 56 46 46 50 56 65 66 64 72 68 64 69 68 63 60 60 63 66 68
70 70 80 80 80 65 54 44 34 28 26 24 27 30 28 23 20 19 20 19 24 31 31 33 37 40 44 48 52 54 62 68 71 71 64 55 65 70 66 63 62 61 71 72
53 47 61 58 63 68 70 64 64 46 40 48 43 38 32 27 22 29 33 34 29 26 31 35 41 49 47 49 49 59 59 57 59 57 58 53 48 48 47 43 47 57 65 71
Wind_Speed
34 34 37 43 44 33 37 45 53 61 69 71 77 74 73 65 55 44 30 24 21 23 23 23 23 26 28 32 33 33 36 38 39 39 39 39 39 38 37 34 33 32 30 31
37 37 39 47 48 38 28 35 46 86 88 81 74 73 80 77 62 44 31 24 21 24 23 21 22 22 26 31 33 34 36 35 35 37 38 38 35 33 30 28 27 25 27 26
44 45 49 61 57 18 31 37 23 44 75 75 74 73 64 61 39 10 18 17 16 18 24 26 24 24 24 26 29 34 37 36 35 35 34 32 30 27 25 23 21 22 22 22
46 44 57 46 37 42 41 48 28 63 72 70 74 73 66 51 48 33 19 15 16 16 22 19 22 23 25 26 28 29 31 33 34 32 31 27 25 22 20 19 18 17 18 19
44 40 55 51 41 40 41 47 42 51 60 63 66 64 66 59 42 39 33 21 25 23 25 21 18 19 20 25 28 30 32 32 31 28 26 23 20 18 16 14 14 14 15 16
34 42 47 38 36 35 34 44 40 44 52 57 55 56 55 46 38 34 34 30 17 15 14 11 16 16 16 17 22 25 28 31 27 24 22 20 16 11 13 10 9 11 14 17
41 48 53 47 40 28 40 37 46 44 50 53 50 44 48 45 36 33 31 26 16 13 13 16 17 16 18 18 20 25 27 24 21 18 14 11 8 7 6 7 10 12 15 18
36 43 52 29 30 34 35 43 45 47 48 50 44 43 42 37 30 26 23 19 15 13 17 18 15 15 17 19 24 24 21 19 16 14 11 9 5 5 5 7 11 15 18 22
28 35 35 30 35 39 44 52 51 51 49 47 40 39 39 36 30 27 25 23 24 21 20 18 15 18 24 25 20 19 15 15 15 12 11 8 5 6 10 12 15 19 23 26
41 40 45 49 52 56 56 55 51 46 46 43 40 34 33 32 30 30 30 29 24 22 21 19 16 18 23 21 19 17 14 8 4 13 11 8 8 10 14 17 20 24 26 29
51 59 63 58 53 52 55 54 49 42 40 41 39 36 32 30 35 33 32 29 24 23 23 20 18 17 18 15 12 14 14 8 3 10 10 9 7 10 16 23 26 29 29 29
65 51 56 66 67 65 68 60 51 44 39 38 39 38 38 39 37 36 34 33 32 30 28 26 20 16 11 16 14 17 10 6 3 4 11 16 12 14 19 26 28 26 31 30
60 62 67 74 72 61 66 63 55 46 41 36 36 36 38 39 40 41 40 39 39 40 37 35 28 21 13 7 9 14 14 12 13 8 9 15 17 18 24 23 29 32 29 28
59 60 67 56 55 61 55 52 47 42 40 38 38 39 38 41 43 45 48 49 48 47 45 41 36 33 25 15 9 13 17 18 15 14 11 13 17 19 23 28 33 33 26 24
53 61 61 61 45 42 44 43 43 43 44 44 43 43 45 49 51 53 55 55 54 52 50 45 42 40 30 24 22 23 23 24 25 26 20 18 19 22 27 31 36 39 37 34
61 56 50 41 37 43 40 39 41 44 47 49 49 50 52 54 57 59 59 58 58 59 56 52 48 43 31 26 28 31 32 34 30 31 31 29 30 31 32 35 37 35 35 34
56 52 52 50 47 39 35 30 35 45 48 48 52 53 54 56 56 57 57 57 57 57 56 55 56 48 36 28 25 30 34 34 30 31 32 36 39 39 39 42 42 41 38 35
50 48 45 41 40 28 29 29 34 39 41 47 48 50 53 54 54 54 56 56 53 50 47 51 52 49 40 29 24 29 31 33 34 36 37 37 38 39 44 48 46 45 47 44
48 48 45 41 39 38 35 33 37 39 44 42 45 48 47 46 47 48 48 46 46 46 49 49 48 45 42 37 33 32 33 34 36 39 42 45 47 46 46 45 47 48 48 46
47 43 41 39 40 40 40 42 38 38 44 43 42 45 46 44 44 44 42 38 42 44 48 48 47 44 43 41 39 38 39 42 46 47 48 47 48 50 48 46 48 48 47 44
46 42 40 39 38 39 39 41 40 39 36 39 39 40 40 39 40 39 38 39 46 49 49 49 47 46 45 44 42 40 40 43 46 49 50 50 48 51 50 45 44 45 44 43
44 44 41 39 40 38 40 40 39 36 35 36 36 36 36 37 38 38 36 40 46 48 48 49 48 47 46 44 42 42 40 40 42 48 52 52 50 52 49 45 43 42 42 42
43 44 44 41 40 40 41 40 39 38 38 38 38 38 38 38 39 39 40 44 47 48 48 49 51 52 49 44 44 43 42 41 41 43 47 50 52 50 45 42 42 41 41 41
45 43 44 42 41 43 44 42 43 42 41 41 40 38 39 41 40 36 43 47 48 50 50 52 53 53 51 47 43 41 40 45 46 44 41 44 42 41 40 38 36 36 36 35
48 48 46 46 47 49 47 47 46 47 45 45 45 42 39 40 42 45 49 50 51 51 51 52 53 53 51 51 48 45 41 39 39 40 41 41 43 44 44 44 43 41 40 39
43 41 44 46 49 51 50 50 53 51 48 49 47 43 42 43 45 47 48 50 51 51 50 51 52 52 52 52 52 50 48 47 44 42 42 39 37 37 36 35 33 28 26 25
40 39 41 49 49 49 50 52 54 56 52 49 49 46 44 45 47 47 48 50 50 50 51 51 51 52 53 54 54 53 51 50 48 48 45 43 40 38 37 35 34 33 32 34
Wind_Direction
287 288 283 279 285 290 281 272 277 285 280 282 277 286 286 294 300 302 289 279 268 273 276 278 282 286 289 291 295 301 305 306 308 311 313 314 314 316 320 325 327 331 338 343
286 291 291 286 287 297 295 289 273 254 260 265 275 280 265 275 294 298 285 272 264 273 274 276 278 283 289 293 297 301 305 309 311 312 314 314 317 320 324 329 332 338 341 348
281 284 282 273 282 297 300 300 280 285 259 276 273 274 291 292 312 221 208 213 228 255 268 275 283 286 291 299 302 300 302 306 311 315 318 320 319 321 325 331 336 341 345 358
281 289 278 294 310 305 302 298 300 274 270 282 279 279 287 296 294 306 299 260 254 256 275 276 283 290 299 301 300 305 309 311 314 316 317 319 319 322 327 331 333 344 351 1
290 297 292 297 307 309 308 302 306 294 289 289 291 294 286 286 290 297 299 286 277 276 281 282 287 297 303 299 302 305 307 311 316 316 316 317 319 317 324 334 337 343 353 1
301 299 295 310 313 320 325 304 318 312 307 306 309 300 301 306 299 296 304 296 277 282 290 285 296 302 305 307 308 311 313 314 317 318 316 316 321 328 326 339 356 359 359 354
291 291 291 298 310 323 307 311 317 320 315 317 316 314 313 312 309 305 305 309 297 293 295 298 303 306 306 310 312 315 317 320 322 325 334 343 354 358 8 348 338 337 340 341
296 295 293 322 324 315 318 318 318 321 321 319 325 318 320 321 323 321 316 322 319 316 310 311 314 312 312 314 316 320 322 324 324 330 338 348 8 351 5 343 328 324 326 326
303 309 314 320 319 319 318 310 310 313 317 318 328 323 320 318 319 319 320 316 308 314 316 318 322 314 309 314 325 326 332 320 317 319 320 330 334 314 313 315 314 313 316 320
302 308 303 299 300 302 305 304 309 316 316 317 320 327 326 321 321 318 315 312 318 319 320 323 323 317 313 317 320 322 325 339 7 303 308 321 313 309 304 304 306 309 313 315
294 293 291 298 306 307 307 308 309 319 318 312 315 317 324 321 316 312 313 317 324 326 326 326 326 322 319 315 321 321 316 324 317 300 300 303 299 300 301 302 304 306 310 315
285 301 300 291 294 293 288 298 306 313 320 316 310 309 309 309 313 313 309 312 311 315 318 324 331 331 327 308 303 303 308 295 243 252 289 295 293 300 303 303 305 306 310 315
297 299 297 291 296 302 294 295 303 310 312 312 314 312 309 309 308 307 308 308 307 306 309 311 317 325 337 330 304 293 293 286 281 264 266 282 288 294 299 305 304 304 308 311
302 308 304 307 303 306 304 304 305 308 308 309 308 307 309 307 305 305 304 304 304 304 304 306 307 307 308 308 307 294 297 286 275 265 259 271 280 289 298 300 300 304 309 310
310 308 313 314 314 318 316 311 307 304 303 303 303 302 304 302 302 302 301 303 303 304 305 306 306 303 302 298 293 293 297 296 289 285 281 280 285 289 295 297 298 300 306 309
312 315 329 342 332 325 329 325 311 302 301 299 299 297 299 300 300 300 300 301 298 297 299 302 305 307 306 300 296 295 293 291 293 293 290 288 287 290 293 294 296 298 300 303
320 321 320 323 334 339 344 341 326 310 306 301 298 298 298 300 302 302 301 301 300 300 302 302 301 307 308 303 299 298 295 295 292 294 291 290 288 287 288 291 292 295 298 302
328 332 334 341 344 4 3 1 345 328 320 307 306 307 302 302 302 304 302 303 305 309 312 308 306 306 310 311 305 304 302 300 298 295 296 292 291 291 289 289 288 290 295 298
334 336 342 346 340 335 349 354 339 330 323 319 311 309 310 310 311 309 312 313 312 313 312 315 316 319 316 314 312 308 305 305 304 302 300 298 297 295 291 289 289 289 291 293
333 342 348 354 347 338 342 337 342 339 323 319 321 308 306 308 312 314 319 326 328 324 322 322 324 325 324 321 317 313 309 306 304 305 304 302 301 298 296 293 290 290 291 292
329 337 345 346 350 342 350 342 347 347 3 326 313 310 307 316 318 323 328 327 325 325 323 322 326 328 327 324 323 321 317 312 309 309 309 309 306 300 299 299 297 295 294 294
334 331 335 338 337 339 333 335 343 351 352 341 306 311 313 323 331 332 338 333 323 326 327 326 330 331 332 333 332 330 328 324 319 315 312 311 311 306 302 301 301 300 300 300
336 334 331 335 331 333 333 325 330 328 324 325 326 325 318 318 323 332 332 323 325 328 335 336 332 331 336 343 339 333 330 329 328 326 321 314 309 312 313 311 306 305 305 306
322 327 327 329 328 321 321 324 315 316 315 312 321 332 330 326 329 340 330 325 329 332 336 334 332 333 338 343 346 348 343 331 327 330 330 325 324 323 324 323 322 320 318 317
312 311 312 316 316 313 311 313 314 309 311 308 309 317 324 323 323 322 321 325 329 333 335 336 336 337 341 343 345 347 349 351 347 341 336 334 328 323 320 318 317 317 314 313
319 318 314 310 309 308 308 307 303 306 309 309 311 316 318 317 319 321 324 325 328 332 337 340 340 340 339 338 338 339 340 341 343 344 341 341 342 341 338 337 336 339 339 336
329 329 325 314 311 310 308 305 302 298 302 306 309 313 316 317 319 322 327 327 329 332 335 336 338 338 336 334 333 334 335 335 334 333 334 336 338 338 338 339 337 334 332 328